This is the latest recevied weather packets stored in our database for station/object K5NCO. If no packets are shown the sender has not sent any weather packets the latest 10 day(s).
| Time | Temp. | Humidity | Pressure | Rain* | Wind** | Luminosity | Snow |
|---|---|---|---|---|---|---|---|
| 1777748306 | 21.11° C | 48% | 1023.2 hPa | 0 mm | - | 744 W/m² | - |
| 1777748002 | 21.67° C | 49% | 1023 hPa | 0 mm | - | 751 W/m² | - |
| 1777747700 | 21.67° C | 50% | 1023 hPa | 0 mm | - | 752 W/m² | - |
| 1777747395 | 21.11° C | 47% | 1023.3 hPa | 0 mm | - | 756 W/m² | - |
| 1777747092 | 20.56° C | 49% | 1023.1 hPa | 0 mm | - | 752 W/m² | - |
| 1777746788 | 21.11° C | 53% | 1023.3 hPa | 0 mm | - | 756 W/m² | - |
| 1777746483 | 21.11° C | 53% | 1023.4 hPa | 0 mm | - | 759 W/m² | - |
| 1777746179 | 20.56° C | 54% | 1023.6 hPa | 0 mm | - | 759 W/m² | - |
| 1777745875 | 20.56° C | 53% | 1023.6 hPa | 0 mm | - | 758 W/m² | - |
| 1777745575 | 20.56° C | 53% | 1023.6 hPa | 0 mm | - | 766 W/m² | - |
| 1777745272 | 21.11° C | 54% | 1023.9 hPa | 0 mm | - | 763 W/m² | - |
| 1777744969 | 20.56° C | 53% | 1023.9 hPa | 0 mm | - | 748 W/m² | - |
| 1777744669 | 20° C | 54% | 1023.8 hPa | 0 mm | - | 744 W/m² | - |
| 1777744364 | 20.56° C | 54% | 1024 hPa | 0 mm | - | 742 W/m² | - |
| 1777744061 | 20° C | 58% | 1024.3 hPa | 0 mm | - | 738 W/m² | - |
| 1777743759 | 20° C | 57% | 1024.3 hPa | 0 mm | - | 733 W/m² | - |
| 1777743455 | 20° C | 57% | 1024.3 hPa | 0 mm | - | 731 W/m² | - |
| 1777743153 | 20° C | 55% | 1024.3 hPa | 0 mm | - | 725 W/m² | - |
| 1777742851 | 20° C | 56% | 1024.5 hPa | 0 mm | - | 722 W/m² | - |
| 1777742546 | 19.44° C | 57% | 1024.5 hPa | 0 mm | - | 714 W/m² | - |
| 1777742243 | 20° C | 56% | 1024.4 hPa | 0 mm | - | 709 W/m² | - |
| 1777741940 | 20° C | 57% | 1024.4 hPa | 0 mm | - | 701 W/m² | - |
| 1777741637 | 20° C | 57% | 1024.6 hPa | 0 mm | - | 696 W/m² | - |
| 1777741334 | 19.44° C | 60% | 1024.3 hPa | 0 mm | - | 687 W/m² | - |
| 1777741029 | 19.44° C | 58% | 1024.5 hPa | 0 mm | - | 681 W/m² | - |
* Rain latest hour (hover to see other rain measurements)
** Current wind speed in m/s (hover to see current wind gust speed)